Regional Weather Roundup
Issued by NWS

Home | Current Version | Previous Version | Text Only | Print | Product List | Glossary On
Versions: 1 2 3 4 5 6 7 8 9 10 11 12 13 14 15 16 17 18 19 20 21 22 23 24 25 26 27 28 29 30 31 32 33 34 35 36 37 38 39 40 41 42 43 44 45 46 47 48 49 50
000
ASUS44 KMEG 180310
RWRTN
TENNESSEE HOURLY STATE WEATHER ROUNDUP
NATIONAL WEATHER SERVICE MEMPHIS TN
1000 PM CDT THU AUG 17 2017

TNZ002-004-019-021-049-052-054-088>092-180400-
WEST TENNESSEE

CITY           SKY/WX    TMP DP  RH WIND       PRES   REMARKS
MEMPHIS INTL   MOCLDY    77  74  90 SW5       29.96R
NWS MEMPHIS      N/A     76 N/A N/A MISG        N/A
JACKSON        CLOUDY    75  75 100 SW5       29.96R
DYERSBURG      PTCLDY    77  75  93 CALM      29.95
SOMERVILLE     CLEAR     75  75 100 SW3       29.96R
COVINGTON      CLEAR     77  75  94 SW5       29.95R
UNION CITY     CLEAR     77  73  88 CALM      29.93R
PARIS          MOCLDY    75  75 100 SW5       29.93R FOG
HUNTINGDON     MOCLDY    77  75  94 SW3       29.94R
LEXINGTON      MOCLDY    75  73  94 W3        29.95S
SELMER         MOCLDY    73  73 100 SW5       29.96R
SAVANNAH       CLEAR     73  73 100 CALM      29.95S
$$

TNZ008-025-027-028-033-062-065-066-180400-
NORTH MIDDLE TENNESSEE

CITY           SKY/WX    TMP DP  RH WIND       PRES   REMARKS
NASHVILLE      LGT RAIN  79  75  87 SW5       29.94R
PORTLAND       CLOUDY    77  75  94 W6G15     29.93S FOG
CLARKSVILLE    PTCLDY    76  73  91 S3        29.93R
SMYRNA         LGT RAIN  79  75  87 SW3       29.95R
COOKEVILLE       N/A     75  72  88 CALM      29.97F
GALLATIN       MOCLDY    79  75  89 S6        29.96R FOG
CROSSVILLE     CLOUDY    73  68  84 CALM      30.04F
$$

TNZ061-075-076-078-094-096-097-180400-
SOUTH MIDDLE TENNESSEE

CITY           SKY/WX    TMP DP  RH WIND       PRES   REMARKS
FAYETTEVILLE   PTCLDY    81  73  78 S9        29.97F
TULLAHOMA      CLEAR     75  70  83 S6        29.99F
WINCHESTER     CLEAR     75  72  88 CALM      29.99S
MCMINNVILLE    CLEAR     75  75 100 CALM      29.97F
COLUMBIA       CLOUDY    77  77 100 S5        29.93F
SHELBYVILLE    CLEAR     77  73  88 S6        29.95F
$$

TNZ017-018-042-046-047-180400-
NORTHEAST TENNESSEE

CITY           SKY/WX    TMP DP  RH WIND       PRES   REMARKS
TRI CITIES     PTCLDY    73  71  93 CALM      30.03R
ELIZABETHTON   PTCLDY    72  72 100 CALM      30.05R
$$

TNZ012-013-036-069-073-074-180400-
CENTRAL EAST TENNESSEE

CITY           SKY/WX    TMP DP  RH WIND       PRES   REMARKS
KNOXVILLE      PTCLDY    78  72  81 SW9       29.99S
OAK RIDGE      PTCLDY    80  72  76 CALM      30.00S
DOWNTOWN KNOXV   N/A     75  75 100 CALM      29.98S
GATLINBURG     CLEAR     77  70  78 CALM      30.00S
MORRISTOWN     CLEAR     77  73  88 CALM      30.01S
JACKSBORO      CLEAR     75  73  94 CALM      30.03R
$$

TNZ083-085-099-180400-
SOUTHEAST TENNESSEE

CITY           SKY/WX    TMP DP  RH WIND       PRES   REMARKS
CHATTANOOGA    PTCLDY    81  72  74 S5        30.00S
DAYTON         CLOUDY    77  75  94 CALM      29.97F
$$

SKY/WX REPORTED AS FAIR MEANS FEW OR NO CLOUDS BELOW
12 THOUSAND FEET.





USA.gov is the U.S. government's official web portal to all federal, state and local government web resources and services.